Regional Weather Roundup
Issued by NWS

Home | Current Version | Previous Version | Graphics & Text | Print | Product List | Glossary On
Versions: 1 2 3 4 5 6 7 8 9 10 11 12 13 14 15 16 17 18 19 20 21 22 23 24 25 26 27 28 29 30 31 32 33 34 35 36 37 38 39 40 41 42 43 44 45 46 47 48 49 50
000
ASUS43 KMPX 170701
RWRMN
WEATHER ROUNDUP FOR MINNESOTA
NATIONAL WEATHER SERVICE TWIN CITIES/CHANHASSEN MN
100 AM CST TUE JAN 17 2017


NOTE: "FAIR" INDICATES FEW OR NO CLOUDS BELOW 12,000 FEET WITH NO
SIGNIFICANT WEATHER AND/OR OBSTRUCTIONS TO VISIBILITY. N/A MEANS
CURRENT SKY AND/OR WEATHER CONDITIONS ARE NOT AVAILABLE.

MNZ060>063-068>070-170800-
   Twin Cities Metro

CITY           SKY/WX    TMP DP  RH WIND       PRES   REMARKS
TWIN CITIES    FRZ RAIN  30  26  85 N5        29.95S FOG     WCI  25
ST PAUL        LGT SNOW  30  29  96 CALM      29.96F FOG
CRYSTAL        FRZ RAIN  29  23  78 N6        29.95F WCI  23
BLAINE         MIX PCPN  32  28  86 N6        29.95F WCI  26
LAKEVILLE      LGT SNOW  28  28 100 N6        29.93S WCI  22
EDEN PRAIRIE   LGT SNOW  30  26  85 N6        29.93F FOG     WCI  24
SOUTH ST PAUL  LGT SNOW  31  29  94 N6        29.95S WCI  25
LAKE ELMO      LGT SNOW  30  30 100 N7        29.95F WCI  23
$$
MNZ001>005-007-008-013>017-022>024-027-028-170800-
   Northwest Minnesota

CITY           SKY/WX    TMP DP  RH WIND       PRES   REMARKS
BEMIDJI        CLOUDY     1  -2  87 CALM      29.97S
HALLOCK        CLOUDY     3   1  92 SE9       29.98S WCI -11
ROSEAU         CLOUDY     0  -4  85 S5        29.98F WCI -10
WARROAD        CLOUDY     3   0  85 CALM      29.98F
THIEF RVR FALL CLOUDY     3   0  87 SE7       29.99F WCI  -9
CROOKSTON      CLOUDY     1   0  92 SE8       30.00F WCI -12
FOSSTON        CLOUDY     0  -2  92 CALM      29.99F FOG
DETROIT LAKES  CLOUDY     9   7  92 SE3       30.00S
MOORHEAD       CLOUDY     3   0  85 SE5       30.02F WCI  -6
PARK RAPIDS    HAZE       0  -5  79 CALM      29.97S VSB 1/4
MAHNOMEN       FAIR       5   2  88 S6        29.99F WCI  -6
$$
MNZ006-009>011-018-025>026-170800-
   North Central Minnesota

CITY           SKY/WX    TMP DP  RH WIND       PRES   REMARKS
BAUDETTE       CLOUDY     0  -4  83 NW5       29.98R WCI -10
FLAG ISLAND    CLOUDY     9   5  85 CALM      29.97F
INTL FALLS     CLOUDY    -1  -5  82 CALM      29.97S
WASKISH        CLOUDY     1  -2  85 CALM      29.98S
BIG FORK       CLOUDY     7   1  78 CALM      29.97S
LONGVILLE      CLOUDY     5   1  85 CALM      29.98S
GRAND RAPIDS   CLOUDY     9   7  92 CALM      30.00R FOG
CRANE LAKE     CLOUDY     0  -2  92 CALM      30.00F
ORR            CLOUDY     5   1  85 CALM      29.95S
COOK           PTCLDY     3   1  92 CALM      29.98S
WALKER         FAIR       8   5  88 CALM      29.98S FOG
$$
MNZ012-019>021-037-170800-
   Northeast Minnesota

CITY           SKY/WX    TMP DP  RH WIND       PRES   REMARKS
DULUTH         CLOUDY    20  15  81 CALM      29.98S
ELY            CLOUDY     5   1  85 CALM      29.97F
HIBBING        CLOUDY     0  -2  91 NW3       29.97S
EVELETH        CLOUDY     6   2  84 CALM      29.99S
DULUTH HARBOR  CLOUDY    21  19  93 CALM      30.02S
TWO HARBORS    CLOUDY    19  16  86 CALM      29.97F
SILVER BAY     CLOUDY    16  14  93 CALM      29.98S
GRAND MARAIS     N/A     27  24  89 N5        30.02F WCI  22
G MARAIS ARPRT FOG       18  14  86 N3        29.97S VSB 1/4
$$
MNZ029>031-032-039>041-046>048-054>057-064-170800-
   West Central Minnesota

CITY           SKY/WX    TMP DP  RH WIND       PRES   REMARKS
FERGUS FALLS   CLOUDY     9   7  92 NW3       30.07R
WHEATON        CLOUDY    10   9  92 CALM      30.06S
MORRIS         FOG        7   5  92 NW5       30.00F VSB 1   WCI  -2
ALEXANDRIA     CLOUDY    11  10  96 N3        29.99S FOG
ELBOW LAKE     FOG        4   2  89 CALM      30.02R VSB<1/4
WADENA         CLOUDY     3   0  85 CALM      29.99R FOG
GLENWOOD       CLOUDY    21  19  93 NW6       29.99S WCI  14
APPLETON       CLOUDY    19  16  86 N9        30.02S WCI   9
ORTONVILLE     CLOUDY     9   5  85 CALM      30.02F
MADISON        CLOUDY    21  16  79 NW9       30.03S WCI  11
WILLMAR        FOG       30  30 100 NW9       30.00S VSB 1   WCI  22
$$
MNZ033>034-036-042>043-049>051-058-059-170800-
   Central Minnesota

CITY           SKY/WX    TMP DP  RH WIND       PRES   REMARKS
ST CLOUD       CLOUDY    26  22  84 N3        29.98F
SAUK CENTRE    CLOUDY    25  24  98 NW5       29.99F FOG     WCI  19
PAYNESVILLE    CLOUDY    30  30 100 N3        29.99S FOG
AITKIN         CLOUDY     7   1  78 CALM      29.98S
PINE RIVER     CLOUDY     5   1  85 CALM      30.02R
BRAINERD       CLOUDY     7   5  91 CALM      29.99S FOG
STAPLES        CLOUDY     3   1  92 CALM      29.99R FOG
LONG PRAIRIE   CLOUDY    25  21  86 CALM      29.99F FOG
LITTLE FALLS   CLOUDY    28  21  74 CALM      30.00S
LITCHFIELD     CLOUDY    30  27  86 N6        29.98S WCI  24
BUFFALO        CLOUDY    29  22  75 N6        29.98S WCI  23
MAPLE LAKE     CLOUDY    30  24  79 N9        29.99R WCI  21
HUTCHINSON     CLOUDY    30  25  83 N5        29.97S WCI  25
$$
MNZ037-044-045-052-053-170800-
   East Central Minnesota

CITY           SKY/WX    TMP DP  RH WIND       PRES   REMARKS
PRINCETON      CLOUDY    28  21  74 N5        29.99R WCI  23
MORA           CLOUDY    23  19  86 N5        30.00F WCI  17
CAMBRIDGE      CLOUDY    30  19  64 N5        29.96S WCI  25
RUSH CITY      CLOUDY    28  23  80 N3        29.98S
MOOSE LAKE     CLOUDY    19  14  79 CALM      29.98S
HINCKLEY       FAIR      28  21  74 NW5       29.99R WCI  23
CLOQUET        CLOUDY    19  14  79 CALM      29.98S
MCGREGOR       CLOUDY    10   9  92 CALM      29.99F
$$
MNZ071>073-080-081-089-090-097-098-170800-
   Southwest Minnesota

CITY           SKY/WX    TMP DP  RH WIND       PRES   REMARKS
MONTEVIDEO     CLOUDY    21  19  93 N10       30.03S WCI  10
GRANITE FALLS  CLOUDY    25  24  96 NW10      30.02S FOG     WCI  15
CANBY            N/A     22  17  81 NW8       30.03S WCI  12
MARSHALL       CLOUDY    21  18  88 NW10      30.00S WCI  10
REDWOOD FALLS  CLOUDY    30  28  92 NW9       29.98S FOG     WCI  22
OLIVIA         CLOUDY    30  28  93 NW5       29.98S FOG     WCI  25
PIPESTONE      CLOUDY    28  28 100 N7        29.95F FOG     WCI  21
WINDOM         FOG       28  28 100 NW9       29.94F VSB 1   WCI  20
WORTHINGTON    CLOUDY    27  26  96 NW14      29.95S FOG     WCI  16
JACKSON        CLOUDY    30  30 100 N5        29.93S FOG     WCI  25
TRACY          FOG       25  25  98 NW8       29.98S VSB 3/4 WCI  16
SLAYTON        FOG       26  26  99 NW7       29.96F VSB 1   WCI  18
$$
MNZ065>067-074>077-082>085-091>093-170800-
   South Central Minnesota

CITY           SKY/WX    TMP DP  RH WIND       PRES   REMARKS
MANKATO        MIX PCPN  31  30  96 N10       29.93F FOG     WCI  22
NEW ULM        CLOUDY    28  27  93 N8        29.95S WCI  20
ST JAMES       LGT SNOW  30  28  93 NW9       29.95S WCI  22
FAIRMONT       LGT SNOW  31  30  96 N13       29.92F FOG     WCI  21
GLENCOE        CLOUDY    30  26  86 N8        29.95S WCI  22
FARIBAULT      MIX PCPN  30  30 100 NW5       29.92F WCI  25
OWATONNA       MIX PCPN  30  30 100 N5        29.91S WCI  25
WASECA         LGT SNOW  32  32 100 N6        29.92F WCI  26
ALBERT LEA     LGT SNOW  34  34 100 N3        29.89S
$$
MNZ078>079-086>088-094>096-170800-
   Southeast Minnesota

CITY           SKY/WX    TMP DP  RH WIND       PRES   REMARKS
ROCHESTER      MIX PCPN  32  32 100 N7        29.87F FOG     WCI  26
RED WING       LGT SNOW  34  30  86 CALM      29.91F
STANTON        LGT SNOW  33  31  94 N6        29.91S WCI  27
DODGE CENTER   MIX PCPN  32  30  93 CALM      29.88F
WINONA         CLOUDY    34  34 100 CALM      29.89F FOG
AUSTIN         CLOUDY    32  30  93 CALM      29.87F FOG
PRESTON        CLOUDY    31  30  96 CALM      29.86F FOG
$$
ABBREVIATIONS USED IN REMARKS
   TC - TEMPERATURES IN CELSIUS
  WCI - WIND CHILL INDEX
   HX - HEAT INDEX
  VSB - VISIBILITY
$$



USA.gov is the U.S. government's official web portal to all federal, state and local government web resources and services.